[[{"header":{"parameterUnit":"m.s-1","parameterCategory":1,"la1":30.2992,"la2":30.254,"lo1":-89.0895,"lo2":-89.0443,"dy":0.0025,"dx":0.0025,"nx":19,"ny":19,"refTime":"2026-03-12T21:00:00:Z","depth":0,"parameterNumber":2,"parameterNumberName":"U-component_of_WINDS"},"data":[0,0,0,-0.1906,-0.1905,-0.185,-0.185,-0.1789,-0.1789,0,0,0,0,0,0,0,0,0,0,0,-0.1928,-0.1928,-0.1907,-0.1905,-0.185,-0.185,-0.1789,-0.1789,0,0,0,0,0,0,0,0,0,0,0,-0.1928,-0.1928,-0.1928,-0.1905,-0.185,-0.185,-0.179,-0.1828,0,0,0,0,0,0,0,0,0,0,-0.188,-0.1905,-0.1928,-0.1928,-0.1905,-0.185,-0.185,-0.1829,-0.1825,-0.1819,0,-0.1814,0,-0.18,-0.1785,-0.1785,0,0,0,-0.1901,-0.1908,-0.1889,-0.1928,-0.1904,-0.185,-0.1874,-0.1827,-0.1822,-0.1813,-0.1813,-0.181,-0.1799,-0.1785,-0.1785,-0.176,-0.176,0,0,-0.1904,-0.1921,-0.1892,-0.1886,-0.1894,-0.1876,-0.1872,-0.1824,-0.1824,-0.1812,-0.1808,-0.1798,-0.1785,-0.1784,-0.176,-0.176,0,0,0,-0.1916,-0.1924,-0.1905,-0.1889,-0.1878,-0.1874,-0.187,-0.1827,-0.1819,-0.1808,-0.1798,-0.1784,-0.1784,-0.176,-0.176,-0.178,0,0,0,-0.1917,-0.193,-0.1906,-0.1916,-0.1879,-0.1851,-0.1874,-0.1822,-0.1816,-0.1798,-0.1784,-0.1783,-0.176,-0.176,-0.178,-0.1787,0,0,0,-0.193,-0.1932,-0.1926,-0.1917,-0.1894,-0.1852,-0.1841,-0.1821,-0.181,-0.1785,-0.1783,-0.176,-0.176,-0.1779,-0.1786,-0.1786,0,0,0,-0.1948,-0.1944,-0.1926,-0.1917,-0.1895,-0.1865,-0.1841,-0.1818,-0.1799,-0.1784,-0.176,-0.176,-0.1779,-0.1785,-0.1785,-0.1789,-0.1792,0,0,-0.1952,-0.1945,-0.1938,-0.1921,-0.1899,-0.1872,-0.1853,-0.1819,-0.1801,-0.1775,-0.1774,-0.178,-0.1786,-0.1786,-0.1804,-0.1807,0,0,0,-0.1945,-0.1941,-0.1931,-0.1914,-0.1889,-0.1868,-0.1835,-0.1823,-0.18,-0.1791,-0.178,-0.1782,-0.1782,-0.1783,-0.1785,-0.1784,-0.1761,-0.1761,-0.1761,-0.1973,-0.1952,-0.194,-0.1912,-0.1896,-0.1864,-0.1849,-0.1828,-0.1809,-0.1807,-0.1799,-0.1813,-0.1815,-0.1816,-0.1815,-0.18,-0.18,-0.18,-0.18,-0.1976,-0.1967,-0.1945,-0.1926,-0.1904,-0.1887,-0.1858,-0.1846,-0.1828,-0.1817,-0.1815,-0.1804,-0.182,-0.1818,-0.1801,-0.1801,-0.1801,-0.1801,-0.18,-0.1992,-0.1984,-0.197,-0.1944,-0.1928,-0.19,-0.1885,-0.1865,-0.1846,-0.1845,-0.1835,-0.1834,-0.1832,-0.1842,-0.1842,-0.1842,-0.1842,-0.1842,-0.1842,-0.2014,-0.1997,-0.1987,-0.1961,-0.1949,-0.193,-0.19,-0.1887,-0.1869,-0.1855,-0.1855,-0.1838,-0.1826,-0.1823,-0.1843,-0.1842,-0.1842,-0.1842,-0.1842,-0.2024,-0.2019,-0.2002,-0.199,-0.196,-0.1946,-0.1922,-0.1898,-0.1885,-0.1879,-0.1863,-0.1857,-0.1848,-0.1846,-0.1843,-0.1867,-0.1867,-0.1867,-0.1867,-0.2037,-0.2031,-0.2011,-0.1993,-0.1973,-0.195,-0.1934,-0.1912,-0.1888,-0.1879,-0.1873,-0.1868,-0.1867,-0.1859,-0.1857,-0.1854,-0.188,-0.188,-0.188,-0.2043,-0.2034,-0.2023,-0.2,-0.1976,-0.1956,-0.194,-0.1922,-0.1894,-0.188,-0.1872,-0.1871,-0.1864,-0.1862,-0.1847,-0.1844,-0.1838,0,0]},{"header":{"parameterUnit":"m.s-1","parameterCategory":1,"la1":30.2992,"la2":30.254,"lo1":-89.0895,"lo2":-89.0443,"dy":0.0025,"dx":0.0025,"nx":19,"ny":19,"refTime":"2026-03-12T21:00:00:Z","depth":0,"parameterNumber":3,"parameterNumberName":"V-component_of_WINDS"},"data":[0,0,0,2.4149,2.4147,2.4066,2.4065,2.3953,2.3952,0,0,0,0,0,0,0,0,0,0,0,2.4172,2.4171,2.4149,2.4147,2.4066,2.4065,2.3954,2.3952,0,0,0,0,0,0,0,0,0,0,0,2.4172,2.4171,2.417,2.4147,2.4066,2.4065,2.3954,2.4017,0,0,0,0,0,0,0,0,0,0,2.4098,2.4118,2.4171,2.417,2.4146,2.4066,2.4065,2.402,2.4013,2.3988,0,2.3968,0,2.3959,2.3945,2.3944,0,0,0,2.4148,2.4123,2.4103,2.417,2.4146,2.4066,2.4103,2.4017,2.4009,2.3979,2.3966,2.3962,2.3957,2.3944,2.3943,2.3803,2.3802,0,0,2.4152,2.4155,2.4109,2.4098,2.4114,2.4105,2.41,2.4012,2.3997,2.3966,2.396,2.3955,2.3943,2.3942,2.3803,2.3802,0,0,0,2.4165,2.4158,2.4141,2.4103,2.4089,2.4103,2.4097,2.4001,2.3995,2.3958,2.3954,2.3942,2.3941,2.3804,2.3803,2.3773,0,0,0,2.4168,2.4166,2.4143,2.4144,2.409,2.4045,2.4088,2.4001,2.3991,2.3954,2.3942,2.394,2.3805,2.3803,2.3776,2.3757,0,0,0,2.4177,2.4167,2.4155,2.4144,2.4109,2.4046,2.4035,2.3999,2.3988,2.3944,2.394,2.3805,2.3804,2.3778,2.3761,2.372,0,0,0,2.4188,2.4129,2.4155,2.4086,2.411,2.403,2.4036,2.3975,2.3933,2.3942,2.3805,2.3803,2.3778,2.3763,2.3723,2.3686,2.3672,0,0,2.4114,2.412,2.4079,2.41,2.4016,2.4042,2.3952,2.391,2.3901,2.3835,2.3832,2.3775,2.3761,2.3721,2.3593,2.3582,0,0,0,2.4057,2.4027,2.4004,2.3967,2.3935,2.3905,2.3878,2.3862,2.3806,2.3869,2.375,2.3742,2.3718,2.37,2.369,2.3669,2.3796,2.3796,2.3796,2.3955,2.395,2.3882,2.3867,2.383,2.3802,2.3771,2.3744,2.3748,2.372,2.37,2.3623,2.3602,2.3595,2.3573,2.3681,2.3681,2.3681,2.3681,2.3845,2.3802,2.3811,2.3748,2.3742,2.3687,2.3658,2.3662,2.3609,2.3638,2.3616,2.3647,2.3583,2.3563,2.3679,2.3679,2.3679,2.368,2.368,2.3776,2.3755,2.3739,2.3684,2.3642,2.3628,2.3577,2.3573,2.3568,2.3547,2.3524,2.3525,2.3523,2.3537,2.3537,2.3537,2.3537,2.3536,2.3536,2.371,2.3694,2.3653,2.3615,2.359,2.3557,2.3529,2.3503,2.3473,2.3474,2.3474,2.3479,2.3579,2.3603,2.3532,2.3533,2.3533,2.3534,2.3534,2.3597,2.3623,2.356,2.3535,2.349,2.3447,2.3444,2.3392,2.337,2.3345,2.3355,2.3431,2.3435,2.3442,2.3462,2.3358,2.3358,2.3358,2.3358,2.3538,2.3541,2.3475,2.3436,2.3397,2.3388,2.3313,2.3291,2.327,2.3256,2.3271,2.3297,2.3306,2.3304,2.3315,2.3333,2.3199,2.3199,2.3199,2.3467,2.3466,2.3405,2.3389,2.3353,2.3322,2.3251,2.3203,2.3186,2.3192,2.3244,2.3251,2.3294,2.3308,2.3314,2.3331,2.3364,0,0]}]]